This is the latest recevied weather packets stored in our database for station/object DF7ER-12. If no packets are shown the sender has not sent any weather packets the latest 10 day(s).
| Time | Temp. | Humidity | Pressure | Rain* | Wind** | Luminosity | Snow |
|---|---|---|---|---|---|---|---|
| 1788152181 | 20° C | 85% | 999.1 hPa | - | - | - | - |
| 1788151881 | 20° C | 84% | 999.1 hPa | - | - | - | - |
| 1788151581 | 19.44° C | 87% | 999.1 hPa | - | - | - | - |
| 1788151281 | 20° C | 86% | 999 hPa | - | - | - | - |
| 1788150981 | 20° C | 86% | 999 hPa | - | - | - | - |
| 1788150681 | 20° C | 86% | 999 hPa | - | - | - | - |
| 1788150381 | 20° C | 89% | 999.1 hPa | - | - | - | - |
| 1788150081 | 20° C | 88% | 999.1 hPa | - | - | - | - |
| 1788149781 | 20° C | 86% | 999.1 hPa | - | - | - | - |
| 1788149481 | 20° C | 87% | 999.1 hPa | - | - | - | - |
| 1788149181 | 20° C | 86% | 999.2 hPa | - | - | - | - |
| 1788148882 | 20° C | 87% | 999.3 hPa | - | - | - | - |
| 1788148581 | 20° C | 86% | 999.4 hPa | - | - | - | - |
| 1788148281 | 20° C | 85% | 999.5 hPa | - | - | - | - |
| 1788147981 | 20° C | 86% | 999.4 hPa | - | - | - | - |
| 1788147681 | 19.44° C | 88% | 999.3 hPa | - | - | - | - |
| 1788147381 | 20° C | 88% | 999.3 hPa | - | - | - | - |
| 1788147081 | 20° C | 87% | 999.3 hPa | - | - | - | - |
| 1788146781 | 20° C | 88% | 999.4 hPa | - | - | - | - |
| 1788146481 | 20° C | 87% | 999.4 hPa | - | - | - | - |
| 1788146181 | 20° C | 86% | 999.6 hPa | - | - | - | - |
| 1788145881 | 20° C | 89% | 999.6 hPa | - | - | - | - |
| 1788145581 | 20° C | 88% | 999.8 hPa | - | - | - | - |
| 1788144130 | 20.56° C | 84% | 1000.2 hPa | - | - | - | - |
| 1788143830 | 20.56° C | 83% | 1000.2 hPa | - | - | - | - |
* Rain since midnight (hover to see other rain measurements)
** Current wind speed in m/s (hover to see current wind gust speed)